| time (UTC) | temp C | wind direction | speed KPH | gust KPH | rain 1hr cm | rain 24hr cm | rain mn cm | humidity % | barometer mb |
| 20260510193101 | 37 | 9.7 | 25.7 | 0.00 | 0.00 | 0.00 | 7 | 950.5 | |
| 20260510191558 | 37 | 347 | 12.9 | 25.7 | 0.00 | 0.00 | 0.00 | 8 | 950.5 |
| 20260510190052 | 37 | 351 | 16.1 | 24.1 | 0.00 | 0.00 | 0.00 | 8 | 950.6 |
| 20260510184553 | 36 | 342 | 12.9 | 27.4 | 0.00 | 0.00 | 0.00 | 8 | 950.8 |
| 20260510183049 | 36 | 340 | 20.9 | 30.6 | 0.00 | 0.00 | 0.00 | 9 | 950.9 |
| 20260510181604 | 35 | 345 | 16.1 | 32.2 | 0.00 | 0.00 | 0.00 | 9 | 951.0 |
| 20260510174542 | 35 | 331 | 16.1 | 30.6 | 0.00 | 0.00 | 0.00 | 9 | 951.0 |
| 20260510173040 | 34 | 344 | 17.7 | 33.8 | 0.00 | 0.00 | 0.00 | 9 | 951.0 |
| 20260510171546 | 33 | 17.7 | 33.8 | 0.00 | 0.00 | 0.00 | 9 | 950.9 | |
| 20260510170036 | 33 | 349 | 22.5 | 35.4 | 0.00 | 0.00 | 0.00 | 9 | 950.9 |
| 20260510164534 | 33 | 6 | 16.1 | 32.2 | 0.00 | 0.00 | 0.00 | 10 | 950.9 |
| 20260510163031 | 32 | 19.3 | 32.2 | 0.00 | 0.00 | 0.00 | 10 | 950.9 | |
| 20260510161528 | 32 | 22.5 | 33.8 | 0.00 | 0.00 | 0.00 | 10 | 950.8 | |
| 20260510160036 | 31 | 20.9 | 33.8 | 0.00 | 0.00 | 0.00 | 11 | 950.8 | |
| 20260510154530 | 31 | 17.7 | 27.4 | 0.00 | 0.00 | 0.00 | 11 | 950.8 | |
| 20260510153025 | 31 | 8 | 19.3 | 33.8 | 0.00 | 0.00 | 0.00 | 12 | 950.8 |
| 20260510151534 | 30 | 344 | 12.9 | 27.4 | 0.00 | 0.00 | 0.00 | 13 | 950.6 |
| 20260510150022 | 30 | 1 | 14.5 | 27.4 | 0.00 | 0.00 | 0.00 | 13 | 950.5 |
| 20260510144521 | 30 | 46 | 14.5 | 24.1 | 0.00 | 0.00 | 0.00 | 12 | 950.4 |
| 20260510143019 | 30 | 335 | 9.7 | 22.5 | 0.00 | 0.00 | 0.00 | 13 | 950.4 |
| 20260510141517 | 29 | 11.3 | 25.7 | 0.00 | 0.00 | 0.00 | 13 | 950.2 | |
| 20260510140015 | 28 | 14.5 | 20.9 | 0.00 | 0.00 | 0.00 | 13 | 950.0 | |
| 20260510134514 | 28 | 349 | 9.7 | 17.7 | 0.00 | 0.00 | 0.00 | 13 | 949.9 |
| 20260510133012 | 28 | 24 | 6.4 | 17.7 | 0.00 | 0.00 | 0.00 | 13 | 949.7 |
| 20260510131511 | 28 | 49 | 8.0 | 22.5 | 0.00 | 0.00 | 0.00 | 13 | 949.5 |
| 20260510130008 | 28 | 30 | 8.0 | 16.1 | 0.00 | 0.00 | 0.00 | 13 | 949.3 |
| 20260510124511 | 27 | 30 | 4.8 | 11.3 | 0.00 | 0.00 | 0.00 | 13 | 949.1 |
| 20260510123006 | 26 | 89 | 0.0 | 6.4 | 0.00 | 0.00 | 0.00 | 13 | 949.0 |
| 20260510121503 | 26 | 71 | 1.6 | 6.4 | 0.00 | 0.00 | 0.00 | 13 | 948.8 |
| 20260510120006 | 26 | 83 | 3.2 | 9.7 | 0.00 | 0.00 | 0.00 | 13 | 948.7 |
| 20260510114501 | 26 | 84 | 1.6 | 6.4 | 0.00 | 0.00 | 0.00 | 13 | 948.7 |
| 20260510113059 | 26 | 73 | 1.6 | 6.4 | 0.00 | 0.00 | 0.00 | 13 | 948.6 |
| 20260510111604 | 27 | 91 | 3.2 | 8.0 | 0.00 | 0.00 | 0.00 | 12 | 948.4 |
| 20260510110055 | 27 | 82 | 3.2 | 8.0 | 0.00 | 0.00 | 0.00 | 12 | 948.4 |
| 20260510104557 | 27 | 82 | 4.8 | 8.0 | 0.00 | 0.00 | 0.00 | 12 | 948.2 |
| 20260510103102 | 26 | 70 | 8.0 | 14.5 | 0.00 | 0.00 | 0.00 | 12 | 948.1 |
| 20260510101550 | 26 | 68 | 8.0 | 12.9 | 0.00 | 0.00 | 0.00 | 12 | 948.0 |
| 20260510100050 | 27 | 80 | 1.6 | 4.8 | 0.00 | 0.00 | 0.00 | 12 | 948.1 |
| 20260510094556 | 28 | 71 | 1.6 | 4.8 | 0.00 | 0.00 | 0.00 | 11 | 948.0 |
| 20260510093050 | 28 | 0.0 | 3.2 | 0.00 | 0.00 | 0.00 | 11 | 947.7 | |
| 20260510091544 | 28 | 0.0 | 4.8 | 0.00 | 0.00 | 0.00 | 11 | 947.6 | |
| 20260510090044 | 28 | 1.6 | 4.8 | 0.00 | 0.00 | 0.00 | 12 | 947.5 | |
| 20260510084538 | 29 | 0.0 | 4.8 | 0.00 | 0.00 | 0.00 | 12 | 947.4 | |
| 20260510083051 | 28 | 0.0 | 4.8 | 0.00 | 0.00 | 0.00 | 12 | 947.3 | |
| 20260510081540 | 29 | 0.0 | 12.9 | 0.00 | 0.00 | 0.00 | 12 | 947.4 | |
| 20260510080034 | 29 | 65 | 0.0 | 4.8 | 0.00 | 0.00 | 0.00 | 12 | 947.3 |
| 20260510074532 | 30 | 27 | 0.0 | 4.8 | 0.00 | 0.00 | 0.00 | 12 | 947.4 |
| 20260510073029 | 30 | 105 | 0.0 | 4.8 | 0.00 | 0.00 | 0.00 | 12 | 947.3 |
| 20260510071533 | 31 | 131 | 0.0 | 1.6 | 0.00 | 0.00 | 0.00 | 11 | 947.2 |
| 20260510070022 | 31 | 254 | 0.0 | 6.4 | 0.00 | 0.00 | 0.00 | 11 | 947.2 |
| 20260510064521 | 31 | 230 | 0.0 | 12.9 | 0.00 | 0.00 | 0.00 | 11 | 947.0 |
| 20260510063022 | 31 | 113 | 8.0 | 14.5 | 0.00 | 0.00 | 0.00 | 11 | 946.9 |
| 20260510061520 | 31 | 99 | 9.7 | 14.5 | 0.00 | 0.00 | 0.00 | 11 | 946.8 |
| 20260510060034 | 31 | 99 | 6.4 | 12.9 | 0.00 | 0.00 | 0.00 | 11 | 946.9 |
| 20260510054527 | 32 | 105 | 11.3 | 16.1 | 0.00 | 0.00 | 0.00 | 11 | 946.8 |
| 20260510053019 | 32 | 110 | 11.3 | 16.1 | 0.00 | 0.00 | 0.00 | 11 | 946.7 |
| 20260510051518 | 32 | 106 | 9.7 | 12.9 | 0.00 | 0.00 | 0.00 | 11 | 946.8 |
| 20260510050017 | 33 | 120 | 8.0 | 11.3 | 0.00 | 0.00 | 0.00 | 11 | 946.7 |
| 20260510044517 | 33 | 110 | 4.8 | 8.0 | 0.00 | 0.00 | 0.00 | 11 | 946.6 |
| 20260510043017 | 33 | 140 | 0.0 | 3.2 | 0.00 | 0.00 | 0.00 | 12 | 946.5 |
| 20260510041517 | 32 | 301 | 0.0 | 4.8 | 0.00 | 0.00 | 0.00 | 12 | 946.4 |
| 20260510040015 | 33 | 1.6 | 4.8 | 0.00 | 0.00 | 0.00 | 12 | 946.3 | |
| 20260510034521 | 34 | 0.0 | 0.0 | 0.00 | 0.00 | 0.00 | 11 | 946.1 | |
| 20260510033015 | 35 | 1.6 | 3.2 | 0.00 | 0.00 | 0.00 | 11 | 945.9 | |
| 20260510031514 | 35 | 112 | 1.6 | 4.8 | 0.00 | 0.00 | 0.00 | 11 | 945.6 |
| 20260510030018 | 36 | 135 | 0.0 | 8.0 | 0.00 | 0.00 | 0.00 | 10 | 945.4 |
| 20260510024512 | 36 | 174 | 1.6 | 8.0 | 0.00 | 0.00 | 0.00 | 10 | 945.1 |
| 20260510023012 | 37 | 157 | 4.8 | 14.5 | 0.00 | 0.00 | 0.00 | 10 | 945.0 |
| 20260510021511 | 38 | 206 | 6.4 | 11.3 | 0.00 | 0.00 | 0.00 | 9 | 944.9 |
| 20260510020011 | 38 | 181 | 4.8 | 12.9 | 0.00 | 0.00 | 0.00 | 9 | 944.8 |
| 20260510014510 | 38 | 246 | 6.4 | 14.5 | 0.00 | 0.00 | 0.00 | 9 | 944.8 |
| 20260510013009 | 38 | 205 | 11.3 | 20.9 | 0.00 | 0.00 | 0.00 | 9 | 944.7 |
| 20260510011509 | 39 | 193 | 6.4 | 16.1 | 0.00 | 0.00 | 0.00 | 9 | 944.8 |
| 20260510010007 | 39 | 226 | 11.3 | 17.7 | 0.00 | 0.00 | 0.00 | 9 | 944.9 |
| 20260510004507 | 39 | 146 | 11.3 | 25.7 | 0.00 | 0.00 | 0.00 | 9 | 944.9 |
| 20260510003018 | 39 | 215 | 8.0 | 25.7 | 0.00 | 0.00 | 0.00 | 9 | 944.9 |
| 20260510001505 | 39 | 218 | 16.1 | 24.1 | 0.00 | 0.00 | 0.00 | 9 | 944.8 |
| 20260510000004 | 39 | 207 | 1.6 | 17.7 | 0.00 | 0.00 | 0.00 | 9 | 944.9 |
| 20260509234503 | 39 | 203 | 16.1 | 24.1 | 0.00 | 0.00 | 0.00 | 9 | 945.0 |
| 20260509233002 | 39 | 207 | 6.4 | 19.3 | 0.00 | 0.00 | 0.00 | 9 | 945.1 |
| 20260509231605 | 39 | 150 | 6.4 | 16.1 | 0.00 | 0.00 | 0.00 | 10 | 945.0 |
| 20260509224601 | 39 | 137 | 17.7 | 33.8 | 0.00 | 0.00 | 0.00 | 10 | 945.6 |
| 20260509223056 | 39 | 199 | 12.9 | 25.7 | 0.00 | 0.00 | 0.00 | 9 | 945.8 |
| 20260509221552 | 39 | 200 | 6.4 | 11.3 | 0.00 | 0.00 | 0.00 | 9 | 946.0 |
| 20260509220050 | 38 | 181 | 1.6 | 27.4 | 0.00 | 0.00 | 0.00 | 9 | 946.3 |
| 20260509214548 | 39 | 195 | 0.0 | 12.9 | 0.00 | 0.00 | 0.00 | 9 | 946.5 |
| 20260509213057 | 38 | 215 | 16.1 | 25.7 | 0.00 | 0.00 | 0.00 | 9 | 946.8 |
| 20260509211542 | 38 | 190 | 11.3 | 25.7 | 0.00 | 0.00 | 0.00 | 9 | 947.0 |
| 20260509210053 | 38 | 255 | 9.7 | 20.9 | 0.00 | 0.00 | 0.00 | 9 | 947.2 |
| 20260509204541 | 37 | 14.5 | 25.7 | 0.00 | 0.00 | 0.00 | 10 | 947.4 | |
| 20260509203040 | 38 | 6.4 | 22.5 | 0.00 | 0.00 | 0.00 | 10 | 947.5 | |
| 20260509201535 | 37 | 14.5 | 22.5 | 0.00 | 0.00 | 0.00 | 12 | 947.7 | |
| 20260509200033 | 37 | 262 | 4.8 | 22.5 | 0.00 | 0.00 | 0.00 | 13 | 947.9 |
| 20260509194532 | 37 | 8.0 | 19.3 | 0.00 | 0.00 | 0.00 | 13 | 948.1 |